Location: Chavannes
(47.1090°N, 0.2226°W)
Time: 15:27:39
(UTC+00:00)

Cosmos 2278 - Pass Details

Date: 16 October 2021
Orbit: 838 x 854 km, 71.1° (Epoch: 06 December)

Event Time Altitude Azimuth Distance (km) Brightness Sun altitude
Rises 19:27:35 0° 217° (SW) 3,387 7.2 -23.8°
Reaches altitude 10° 19:30:03 10° 221° (SW) 2,458 6.4 -24.3°
Maximum altitude 19:35:37 60° 301° (WNW) 970 4.2 -25.2°
Drops below altitude 10° 19:41:16 10° 21° (NNE) 2,484 6.1 -26.1°
Sets 19:43:47 0° 25° (NNE) 3,426 6.8 -26.5°
